[[{"header":{"parameterUnit":"m.s-1","parameterCategory":2,"la1":30.2992,"la2":30.254,"lo1":-89.0895,"lo2":-89.0443,"dy":0.0025,"dx":0.0025,"nx":19,"ny":19,"refTime":"2026-03-26T09:00:00:Z","depth":"0","parameterNumber":2,"parameterNumberName":"U-component_of_CURRENTS"},"data":[0,0,0,0.0397,0.0397,0.0404,0.0404,0.0392,0.0392,0,0,0,0,0,0,0,0,0,0,0,0.0386,0.0386,0.0396,0.0397,0.0404,0.0404,0.0392,0.0392,0,0,0,0,0,0,0,0,0,0,0,0.0386,0.0386,0.0386,0.0397,0.0404,0.0404,0.0392,0.0391,0,0,0,0,0,0,0,0,0,0,0.0386,0.0378,0.0386,0.0386,0.0397,0.0404,0.0404,0.0391,0.0391,0.0384,0,0.0381,0,0.0391,0.0391,0.0391,0,0,0,0.0393,0.0378,0.0385,0.0386,0.0397,0.0404,0.04,0.0391,0.0391,0.0383,0.0381,0.0381,0.0391,0.0391,0.0391,0.0336,0.0335,0,0,0.0393,0.0383,0.0385,0.0384,0.0394,0.04,0.04,0.0391,0.0386,0.0381,0.0381,0.0391,0.0391,0.0391,0.0336,0.0336,0,0,0,0.0394,0.0383,0.039,0.0385,0.039,0.04,0.04,0.0386,0.0389,0.0381,0.039,0.0391,0.039,0.0337,0.0336,0.0283,0,0,0,0.0394,0.0384,0.0389,0.0383,0.039,0.0391,0.0395,0.039,0.039,0.039,0.0391,0.039,0.0337,0.0336,0.0285,0.0269,0,0,0,0.0386,0.0383,0.0384,0.0383,0.0389,0.0391,0.0394,0.039,0.0395,0.0391,0.039,0.0338,0.0337,0.0288,0.0273,0.0221,0,0,0,0.0377,0.0357,0.0383,0.0361,0.0389,0.0369,0.0394,0.0378,0.037,0.039,0.0337,0.0336,0.0288,0.0275,0.0224,0.0147,0.0129,0,0,0.0345,0.0353,0.034,0.0363,0.0339,0.0368,0.033,0.0334,0.035,0.0339,0.0338,0.0285,0.0273,0.0222,0.008,0.0063,0,0,0,0.0325,0.0316,0.0311,0.0307,0.0307,0.0297,0.0306,0.0301,0.0286,0.0342,0.0275,0.027,0.0239,0.0198,0.0185,0.004,0.0331,0.0331,0.0331,0.0264,0.0274,0.0252,0.026,0.0247,0.0242,0.0223,0.0219,0.0242,0.0222,0.0219,0.0136,0.0092,0.0081,-0.0068,0.0208,0.0208,0.0208,0.0207,0.0219,0.0217,0.0219,0.0205,0.0201,0.0177,0.0152,0.0153,0.0113,0.0156,0.0128,0.0136,0.0063,-0.009,0.0204,0.0204,0.0205,0.0205,0.0206,0.0191,0.0196,0.0189,0.0181,0.0158,0.0148,0.0105,0.0087,0.0069,0.004,-0.0007,-0.0006,-0.0135,0.0023,0.0023,0.0023,0.0022,0.0022,0.0022,0.018,0.0175,0.0174,0.0161,0.0159,0.0135,0.0079,0.0031,-0.0053,-0.0072,-0.0073,-0.0197,0.008,0.0095,0.0017,0.0018,0.0018,0.0019,0.0019,0.0179,0.0178,0.0176,0.0174,0.0165,0.0136,0.0068,-0.0076,-0.0144,-0.0207,-0.0394,-0.014,-0.0131,-0.012,-0.0111,-0.0238,-0.0238,-0.0238,-0.0238,0.0187,0.0183,0.0192,0.0194,0.018,0.0143,0.0024,-0.0147,-0.0407,-0.0558,-0.0582,-0.0582,-0.0565,-0.058,-0.0559,-0.0558,-0.0795,-0.0796,-0.0796,0.0204,0.0201,0.0211,0.0208,0.0196,0.0148,0.0024,-0.027,-0.0688,-0.0831,-0.0777,-0.0753,-0.0758,-0.0719,-0.074,-0.0699,-0.0693,0,0]},{"header":{"parameterUnit":"m.s-1","parameterCategory":2,"la1":30.2992,"la2":30.254,"lo1":-89.0895,"lo2":-89.0443,"dy":0.0025,"dx":0.0025,"nx":19,"ny":19,"refTime":"2026-03-26T09:00:00:Z","depth":"0","parameterNumber":3,"parameterNumberName":"V-component_of_CURRENTS"},"data":[0,0,0,-0.1404,-0.1404,-0.1347,-0.1346,-0.1175,-0.1174,0,0,0,0,0,0,0,0,0,0,0,-0.1418,-0.1418,-0.1404,-0.1404,-0.1347,-0.1346,-0.1175,-0.1174,0,0,0,0,0,0,0,0,0,0,0,-0.1418,-0.1418,-0.1418,-0.1404,-0.1347,-0.1346,-0.1176,-0.1237,0,0,0,0,0,0,0,0,0,0,-0.1301,-0.1334,-0.1418,-0.1418,-0.1404,-0.1347,-0.1346,-0.124,-0.1233,-0.1181,0,-0.1189,0,-0.119,-0.1162,-0.1162,0,0,0,-0.1377,-0.1341,-0.1336,-0.1418,-0.1404,-0.1347,-0.1365,-0.1237,-0.1228,-0.1171,-0.1187,-0.1182,-0.1187,-0.1161,-0.116,-0.1075,-0.1076,0,0,-0.138,-0.1389,-0.1342,-0.1331,-0.1408,-0.1367,-0.1364,-0.1232,-0.1223,-0.1187,-0.1178,-0.1184,-0.116,-0.1159,-0.1075,-0.1075,0,0,0,-0.1407,-0.1392,-0.139,-0.1337,-0.1342,-0.1366,-0.1362,-0.1228,-0.1232,-0.1176,-0.1182,-0.1159,-0.1157,-0.1075,-0.1075,-0.1153,0,0,0,-0.1408,-0.141,-0.1392,-0.1394,-0.1346,-0.1298,-0.1361,-0.1241,-0.1227,-0.1183,-0.1159,-0.1156,-0.1074,-0.1075,-0.1151,-0.1176,0,0,0,-0.1417,-0.141,-0.1413,-0.1396,-0.1386,-0.13,-0.1295,-0.1238,-0.123,-0.1162,-0.1155,-0.1074,-0.1075,-0.1148,-0.1172,-0.1155,0,0,0,-0.1415,-0.1432,-0.1413,-0.143,-0.1387,-0.1375,-0.1296,-0.1261,-0.1211,-0.1158,-0.1074,-0.1075,-0.1147,-0.1169,-0.1153,-0.1125,-0.1131,0,0,-0.1438,-0.1434,-0.1446,-0.1429,-0.1442,-0.1379,-0.1367,-0.1267,-0.1202,-0.1104,-0.1103,-0.1151,-0.1172,-0.1155,-0.1169,-0.1174,0,0,0,-0.1455,-0.1462,-0.1463,-0.1465,-0.1449,-0.1421,-0.1339,-0.1294,-0.1214,-0.1182,-0.1145,-0.1155,-0.1142,-0.1121,-0.1125,-0.0827,-0.1079,-0.1079,-0.1079,-0.1459,-0.1471,-0.1489,-0.1494,-0.1486,-0.1437,-0.1401,-0.1321,-0.1255,-0.124,-0.1215,-0.125,-0.123,-0.1232,-0.0927,-0.1213,-0.1214,-0.1214,-0.1214,-0.1479,-0.1482,-0.1504,-0.1525,-0.1513,-0.1494,-0.1431,-0.1388,-0.1314,-0.1274,-0.1257,-0.12,-0.1241,-0.0914,-0.1219,-0.1218,-0.1218,-0.1217,-0.1217,-0.1453,-0.1461,-0.1486,-0.152,-0.1534,-0.1517,-0.1504,-0.1449,-0.1373,-0.1367,-0.1288,-0.1286,-0.0996,-0.1344,-0.1344,-0.1344,-0.1344,-0.1344,-0.1344,-0.1406,-0.144,-0.1468,-0.151,-0.1532,-0.1549,-0.1532,-0.1503,-0.1423,-0.1358,-0.1356,-0.0966,-0.1288,-0.1281,-0.1346,-0.1345,-0.1345,-0.1345,-0.1345,-0.137,-0.1388,-0.1433,-0.1464,-0.1532,-0.1566,-0.1568,-0.1522,-0.1465,-0.1419,-0.0963,-0.1333,-0.1291,-0.1286,-0.1278,-0.1337,-0.1337,-0.1337,-0.1337,-0.1334,-0.1351,-0.1415,-0.1468,-0.1524,-0.1571,-0.1591,-0.1531,-0.1175,-0.092,-0.079,-0.0721,-0.0735,-0.0654,-0.0664,-0.064,-0.0536,-0.0535,-0.0533,-0.1316,-0.1344,-0.138,-0.1451,-0.1525,-0.1583,-0.161,-0.1501,-0.0894,-0.0468,-0.0375,-0.0409,-0.0277,-0.0322,-0.0173,-0.0211,-0.0165,0,0]}],[{"header":{"parameterUnit":"m.s-1","parameterCategory":2,"la1":30.2992,"la2":30.254,"lo1":-89.0895,"lo2":-89.0443,"dy":0.0025,"dx":0.0025,"nx":19,"ny":19,"refTime":"2026-03-26T09:00:00:Z","depth":"2","parameterNumber":2,"parameterNumberName":"U-component_of_CURRENTS"},"data":[0,0,0,-0.0903,-0.0903,-0.0888,-0.0888,-0.0805,-0.0804,0,0,0,0,0,0,0,0,0,0,0,-0.0895,-0.0895,-0.0903,-0.0903,-0.0888,-0.0888,-0.0805,-0.0804,0,0,0,0,0,0,0,0,0,0,0,-0.0895,-0.0895,-0.0895,-0.0903,-0.0888,-0.0888,-0.0805,-0.0828,0,0,0,0,0,0,0,0,0,0,-0.0849,-0.0851,-0.0895,-0.0895,-0.0903,-0.0888,-0.0888,-0.083,-0.0827,-0.0798,0,-0.0798,0,-0.0809,-0.0798,-0.0798,0,0,0,-0.0888,-0.0854,-0.0861,-0.0895,-0.0903,-0.0888,-0.0891,-0.0829,-0.0825,-0.0793,-0.0797,-0.0794,-0.0808,-0.0798,-0.0797,-0.0767,-0.0767,0,0,-0.0889,-0.0879,-0.0863,-0.0859,-0.0901,-0.0891,-0.089,-0.0827,-0.0815,-0.0796,-0.0793,-0.0807,-0.0797,-0.0796,-0.0766,-0.0767,0,0,0,-0.0901,-0.0879,-0.0889,-0.0861,-0.087,-0.0891,-0.089,-0.0818,-0.0824,-0.0792,-0.0806,-0.0797,-0.0796,-0.0766,-0.0766,-0.0818,0,0,0,-0.0901,-0.0889,-0.0889,-0.0881,-0.0871,-0.0852,-0.0882,-0.0828,-0.0822,-0.0806,-0.0797,-0.0795,-0.0766,-0.0766,-0.0816,-0.0835,0,0,0,-0.0896,-0.0888,-0.0889,-0.0881,-0.0885,-0.0854,-0.0855,-0.0827,-0.0831,-0.0798,-0.0794,-0.0765,-0.0766,-0.0814,-0.0832,-0.0853,0,0,0,-0.0882,-0.0892,-0.0889,-0.0903,-0.0885,-0.09,-0.0856,-0.0841,-0.0816,-0.0796,-0.0766,-0.0766,-0.0813,-0.083,-0.0851,-0.0972,-0.099,0,0,-0.0894,-0.0893,-0.0905,-0.0904,-0.0931,-0.0901,-0.0917,-0.0857,-0.0817,-0.0778,-0.0778,-0.0817,-0.0832,-0.0852,-0.1012,-0.103,0,0,0,-0.091,-0.0915,-0.0923,-0.0935,-0.0943,-0.0948,-0.0903,-0.0886,-0.0847,-0.081,-0.0816,-0.0824,-0.0836,-0.0905,-0.0919,-0.077,-0.077,-0.077,-0.077,-0.0897,-0.092,-0.0939,-0.0963,-0.0973,-0.0969,-0.0967,-0.0933,-0.0882,-0.0877,-0.0867,-0.0917,-0.0992,-0.1004,-0.0868,-0.0868,-0.0868,-0.0868,-0.0868,-0.0913,-0.0924,-0.0952,-0.0971,-0.0988,-0.0987,-0.1003,-0.0979,-0.0967,-0.0921,-0.0929,-0.0956,-0.1023,-0.0872,-0.0872,-0.0871,-0.0871,-0.087,-0.087,-0.0894,-0.0905,-0.0913,-0.0945,-0.0962,-0.0979,-0.1008,-0.1012,-0.0999,-0.1016,-0.1064,-0.1064,-0.0944,-0.1005,-0.1005,-0.1005,-0.1006,-0.1006,-0.1006,-0.0863,-0.0884,-0.0883,-0.0917,-0.0914,-0.0941,-0.0993,-0.1024,-0.1103,-0.1129,-0.113,-0.0963,-0.0958,-0.0951,-0.1009,-0.1008,-0.1008,-0.1008,-0.1007,-0.0848,-0.0844,-0.0845,-0.0842,-0.0862,-0.0895,-0.0972,-0.1122,-0.1175,-0.1245,-0.1201,-0.1196,-0.1188,-0.1177,-0.1176,-0.1287,-0.1287,-0.1287,-0.1287,-0.0822,-0.083,-0.0805,-0.0795,-0.0814,-0.0871,-0.1005,-0.1152,-0.1258,-0.1246,-0.1246,-0.1234,-0.1227,-0.1217,-0.1205,-0.1202,-0.132,-0.1319,-0.1319,-0.0813,-0.0803,-0.0772,-0.0763,-0.0774,-0.0847,-0.1005,-0.1165,-0.1171,-0.1305,-0.1099,-0.1319,-0.1306,-0.1292,-0.1277,-0.1259,-0.1253,0,0]},{"header":{"parameterUnit":"m.s-1","parameterCategory":2,"la1":30.2992,"la2":30.254,"lo1":-89.0895,"lo2":-89.0443,"dy":0.0025,"dx":0.0025,"nx":19,"ny":19,"refTime":"2026-03-26T09:00:00:Z","depth":"2","parameterNumber":3,"parameterNumberName":"V-component_of_CURRENTS"},"data":[0,0,0,0.0217,0.0218,0.0268,0.0268,0.0345,0.0346,0,0,0,0,0,0,0,0,0,0,0,0.0187,0.0187,0.0217,0.0218,0.0268,0.0268,0.0345,0.0346,0,0,0,0,0,0,0,0,0,0,0,0.0187,0.0187,0.0187,0.0218,0.0268,0.0268,0.0345,0.0304,0,0,0,0,0,0,0,0,0,0,0.0254,0.0218,0.0187,0.0187,0.0218,0.0268,0.0268,0.0302,0.0307,0.0325,0,0.0322,0,0.0341,0.0351,0.0351,0,0,0,0.022,0.0214,0.0235,0.0187,0.0219,0.0268,0.0246,0.0305,0.031,0.0331,0.0323,0.0326,0.0342,0.0351,0.0352,0.0422,0.0422,0,0,0.0217,0.0193,0.0231,0.0238,0.0218,0.0244,0.0248,0.0308,0.0303,0.0323,0.0328,0.0343,0.0352,0.0352,0.0422,0.0422,0,0,0,0.0208,0.0191,0.021,0.0234,0.0246,0.0246,0.0249,0.03,0.0308,0.0329,0.0344,0.0352,0.0353,0.0422,0.0422,0.0358,0,0,0,0.0206,0.0186,0.0209,0.0194,0.0244,0.0271,0.024,0.0304,0.0312,0.0344,0.0352,0.0354,0.0421,0.0422,0.0359,0.0318,0,0,0,0.0187,0.0184,0.0187,0.0193,0.0217,0.0271,0.0282,0.0306,0.0321,0.0351,0.0354,0.0421,0.0422,0.036,0.0321,0.0311,0,0,0,0.0165,0.0162,0.0186,0.0188,0.0216,0.0257,0.0282,0.0307,0.0329,0.0353,0.0421,0.0422,0.0361,0.0323,0.0312,0.0381,0.0379,0,0,0.0153,0.0159,0.0164,0.0187,0.0209,0.0251,0.0279,0.0311,0.0345,0.0402,0.0404,0.0359,0.0321,0.0311,0.0407,0.0404,0,0,0,0.0156,0.015,0.0164,0.0178,0.0221,0.0245,0.0293,0.0316,0.0349,0.0361,0.0386,0.0365,0.036,0.0406,0.0404,0.0424,0.0424,0.0424,0.0424,0.0097,0.0125,0.0124,0.0159,0.0183,0.0244,0.0267,0.031,0.0345,0.0349,0.0333,0.0308,0.0358,0.0357,0.0365,0.0365,0.0364,0.0364,0.0364,0.0063,0.0058,0.0082,0.0086,0.0124,0.0145,0.0222,0.0249,0.0285,0.0312,0.0311,0.0362,0.0351,0.036,0.036,0.0361,0.0361,0.0362,0.0362,0.0017,0.0017,0.0016,0.0013,0.0009,0.0061,0.0062,0.0133,0.0207,0.0212,0.0281,0.0283,0.0254,0.0208,0.0208,0.0208,0.0208,0.0207,0.0207,-0.0033,-0.0029,-0.006,-0.0065,-0.0091,-0.0102,-0.004,0.0006,0.0129,0.0216,0.0217,0.0256,0.0261,0.0246,0.0204,0.0204,0.0205,0.0205,0.0205,-0.0082,-0.0089,-0.013,-0.0161,-0.0209,-0.0233,-0.0176,-0.0035,0.004,0.0125,0.0242,0.0243,0.0271,0.0275,0.0263,0.0226,0.0226,0.0226,0.0226,-0.0127,-0.0127,-0.0189,-0.0242,-0.0292,-0.0291,-0.0243,-0.0054,0.0153,0.0265,0.0263,0.0313,0.0312,0.0345,0.0348,0.0338,0.0321,0.0321,0.0321,-0.0165,-0.0175,-0.0227,-0.0267,-0.0327,-0.0341,-0.0269,-0.0057,0.0214,0.032,0.0237,0.0241,0.0312,0.0311,0.0364,0.0367,0.0353,0,0]}],[{"header":{"parameterUnit":"m.s-1","parameterCategory":2,"la1":30.2992,"la2":30.254,"lo1":-89.0895,"lo2":-89.0443,"dy":0.0025,"dx":0.0025,"nx":19,"ny":19,"refTime":"2026-03-26T09:00:00:Z","depth":"4","parameterNumber":2,"parameterNumberName":"U-component_of_CURRENTS"},"data":[0,0,0,-0.0911,-0.0913,-0.0991,-0.0991,-0.1036,-0.1036,0,0,0,0,0,0,0,0,0,0,0,-0.0888,-0.0889,-0.0911,-0.0913,-0.0991,-0.0991,-0.1036,-0.1036,0,0,0,0,0,0,0,0,0,0,0,-0.0888,-0.0888,-0.0889,-0.0913,-0.0991,-0.0991,-0.1036,-0.0991,0,0,0,0,0,0,0,0,0,0,-0.0922,-0.0911,-0.0888,-0.0889,-0.0913,-0.0991,-0.0991,-0.0989,-0.0994,-0.0985,0,-0.1004,0,-0.1018,-0.1038,-0.1038,0,0,0,-0.0913,-0.0907,-0.0925,-0.0889,-0.0914,-0.099,-0.0956,-0.0992,-0.0997,-0.099,-0.1004,-0.1007,-0.1019,-0.1038,-0.1038,-0.1082,-0.1082,0,0,-0.0909,-0.0903,-0.0922,-0.0929,-0.0942,-0.0953,-0.0958,-0.0996,-0.1004,-0.1005,-0.1008,-0.102,-0.1038,-0.1038,-0.1082,-0.1082,0,0,0,-0.0896,-0.09,-0.0918,-0.0926,-0.0944,-0.0955,-0.0961,-0.1003,-0.1009,-0.1008,-0.102,-0.1038,-0.1039,-0.1081,-0.1082,-0.1103,0,0,0,-0.0894,-0.0892,-0.0916,-0.0913,-0.0943,-0.0982,-0.0967,-0.1006,-0.1011,-0.102,-0.1038,-0.1039,-0.1081,-0.1081,-0.1101,-0.1117,0,0,0,-0.0883,-0.0891,-0.0902,-0.0913,-0.0946,-0.0982,-0.0991,-0.1008,-0.1017,-0.1038,-0.1039,-0.1081,-0.1081,-0.11,-0.1115,-0.1142,0,0,0,-0.087,-0.0889,-0.0902,-0.0929,-0.0945,-0.0987,-0.0991,-0.1029,-0.105,-0.1039,-0.1081,-0.1082,-0.11,-0.1114,-0.1141,-0.1006,0,0,0,-0.0882,-0.0891,-0.0905,-0.0918,-0.0959,-0.0976,-0.1018,-0.1049,-0.1054,-0.1064,-0.1066,-0.1102,-0.1115,-0.1142,-0.1047,0,0,0,0,-0.0901,-0.0913,-0.0928,-0.0958,-0.0988,-0.1026,-0.1052,-0.1063,-0.1095,-0.107,-0.111,-0.1118,-0.1134,-0.1051,-0.1085,-0.1085,-0.1085,-0.1085,-0.1085,-0.0897,-0.092,-0.095,-0.0984,-0.1016,-0.1062,-0.1091,-0.1111,-0.1108,-0.1129,-0.114,-0.1184,-0.1097,-0.1143,-0.1144,-0.1144,-0.1144,-0.1144,-0.1144,-0.0906,-0.0919,-0.0964,-0.1002,-0.1047,-0.1085,-0.113,-0.1143,-0.1181,-0.1167,-0.1182,-0.1085,-0.1146,-0.1146,-0.1145,-0.1145,-0.1145,-0.1145,-0.1145,-0.0886,-0.0897,-0.0934,-0.0991,-0.105,-0.11,-0.1142,-0.1182,-0.1207,-0.1229,-0.1149,-0.1207,-0.1199,-0.1242,-0.1242,-0.1242,-0.1242,-0.1243,-0.1243,-0.0844,-0.0883,-0.0909,-0.0977,-0.1007,-0.1064,-0.1153,-0.1179,-0.1226,-0.1168,-0.1245,-0.1217,-0.1214,-0.1205,-0.1246,-0.1245,-0.1245,-0.1245,-0.1244,-0.081,-0.0835,-0.086,-0.0889,-0.0948,-0.098,-0.1089,-0.1128,-0.1154,-0.1138,-0.1132,-0.1137,-0.112,-0.112,-0.1106,-0.1119,-0.1118,-0.1116,0,-0.078,-0.0797,-0.0813,-0.0824,-0.0841,-0.0918,-0.0929,-0.0992,-0.1042,-0.1003,-0.1147,-0.1138,-0.114,-0.1119,-0.1116,-0.1099,0,0,0,-0.0762,-0.0769,-0.0759,-0.0776,-0.0779,-0.0829,-0.0925,-0.0917,-0.1029,-0.103,-0.1076,-0.1087,-0.119,-0.1255,-0.1241,-0.1237,-0.1222,0,0]},{"header":{"parameterUnit":"m.s-1","parameterCategory":2,"la1":30.2992,"la2":30.254,"lo1":-89.0895,"lo2":-89.0443,"dy":0.0025,"dx":0.0025,"nx":19,"ny":19,"refTime":"2026-03-26T09:00:00:Z","depth":"4","parameterNumber":3,"parameterNumberName":"V-component_of_CURRENTS"},"data":[0,0,0,0.0254,0.0255,0.0296,0.0296,0.0334,0.0334,0,0,0,0,0,0,0,0,0,0,0,0.0241,0.0241,0.0254,0.0255,0.0296,0.0296,0.0334,0.0334,0,0,0,0,0,0,0,0,0,0,0,0.0241,0.0241,0.0242,0.0255,0.0296,0.0296,0.0334,0.0308,0,0,0,0,0,0,0,0,0,0,0.027,0.0257,0.0241,0.0242,0.0255,0.0296,0.0297,0.0307,0.0309,0.0309,0,0.0316,0,0.0323,0.0336,0.0336,0,0,0,0.0259,0.0255,0.0266,0.0242,0.0255,0.0296,0.0279,0.0308,0.0311,0.0313,0.0316,0.0318,0.0323,0.0336,0.0336,0.0375,0.0375,0,0,0.0257,0.0249,0.0264,0.0268,0.0265,0.0277,0.028,0.031,0.0313,0.0316,0.0319,0.0324,0.0336,0.0337,0.0374,0.0375,0,0,0,0.0247,0.0247,0.0258,0.0267,0.0274,0.0278,0.0281,0.0311,0.0315,0.0319,0.0324,0.0337,0.0337,0.0374,0.0374,0.037,0,0,0,0.0246,0.0242,0.0257,0.0253,0.0273,0.0295,0.0282,0.0313,0.0317,0.0324,0.0337,0.0337,0.0374,0.0374,0.037,0.0357,0,0,0,0.0239,0.0241,0.0245,0.0253,0.0268,0.0294,0.03,0.0314,0.032,0.0336,0.0337,0.0374,0.0374,0.037,0.0357,0.0378,0,0,0,0.023,0.0229,0.0245,0.0245,0.0268,0.0286,0.03,0.0319,0.0332,0.0337,0.0374,0.0374,0.0369,0.0357,0.0377,0.0311,0,0,0,0.022,0.0227,0.0226,0.0242,0.025,0.0281,0.03,0.0325,0.0342,0.0363,0.0364,0.037,0.0357,0.0377,0.0343,0,0,0,0,0.0217,0.0217,0.0223,0.0233,0.0253,0.0282,0.0311,0.0332,0.0365,0.0352,0.0382,0.0374,0.0387,0.0348,0.0377,0.0377,0.0377,0.0377,0.0377,0.0194,0.0204,0.0203,0.0222,0.0239,0.0286,0.0315,0.0351,0.0363,0.0384,0.038,0.0403,0.0363,0.0397,0.0397,0.0397,0.0397,0.0397,0.0397,0.0173,0.0168,0.0189,0.0192,0.0228,0.0251,0.0314,0.0342,0.039,0.0392,0.0405,0.0357,0.0397,0.0397,0.0397,0.0397,0.0397,0.0397,0.0397,0.015,0.0149,0.0155,0.0165,0.0186,0.023,0.0262,0.0318,0.0376,0.0396,0.0369,0.0406,0.0396,0.0409,0.0409,0.0409,0.0409,0.0409,0.0409,0.0121,0.0128,0.0128,0.0137,0.0142,0.0161,0.0233,0.0274,0.0343,0.0354,0.0395,0.0407,0.0407,0.0398,0.041,0.0409,0.0409,0.0409,0.0409,0.0089,0.0099,0.01,0.0102,0.0105,0.0107,0.0168,0.024,0.0287,0.0319,0.0343,0.0346,0.0342,0.0344,0.0332,0.0325,0.0324,0.0323,0,0.007,0.0073,0.0086,0.0086,0.0073,0.0083,0.0114,0.0169,0.0253,0.024,0.0299,0.0322,0.0325,0.0318,0.0318,0.0302,0,0,0,0.0054,0.0065,0.0072,0.0081,0.0061,0.0081,0.012,0.0142,0.0226,0.0259,0.0303,0.0308,0.0352,0.0411,0.0414,0.0414,0.0399,0,0]}]]